GW5310 Weather Reports


time (UTC)temp
F
wind
direction
speed
knots
gust
knots
rain 1hr
in
rain 24hr
in
rain mn
in
humidity
%
barometer
mb
20260508063055 32 47 1.7 2.6 0.00 0.00 0.00 92 1016.5
20260508062552 32 49 1.7 3.5 0.00 0.00 0.00 91 1016.6
20260508062048 32 27 1.7 2.6 0.00 0.00 0.00 92 1016.6
20260508061546 32 61 0.0 3.5 0.00 0.00 0.00 91 1016.7
20260508061043 32 350 1.7 2.6 0.00 0.00 0.00 91 1016.5
20260508060539 33 46 0.9 2.6 0.00 0.00 0.00 91 1016.5
20260508060037 33 16 1.7 2.6 0.00 0.00 0.00 89 1016.8
20260508055532 33 15 1.7 1.7 0.00 0.00 0.00 91 1016.4
20260508055029 33 17 1.7 2.6 0.00 0.00 0.00 90 1016.5
20260508054526 33 105 1.7 4.3 0.00 0.00 0.00 90 1016.6
20260508054023 33 69 0.0 1.7 0.00 0.00 0.00 90 1016.7
20260508053520 33 7 1.7 3.5 0.00 0.00 0.00 91 1016.5
20260508053019 33 68 2.6 2.6 0.00 0.00 0.00 90 1016.4
20260508052515 33 107 1.7 2.6 0.00 0.00 0.00 91 1016.6
20260508052012 33 72 1.7 2.6 0.00 0.00 0.00 91 1016.5
20260508051508 34 12 1.7 2.6 0.00 0.00 0.00 90 1016.7
20260508051003 34 55 0.9 4.3 0.00 0.00 0.00 90 1016.8
20260508050500 33 349 2.6 3.5 0.00 0.00 0.00 92 1016.6
20260508045956 33 122 1.7 2.6 0.00 0.00 0.00 92 1016.8
20260508045454 33 72 0.9 2.6 0.00 0.00 0.00 91 1016.7
20260508044951 34 218 0.0 3.5 0.00 0.00 0.00 90 1016.7
20260508044448 35 49 0.9 2.6 0.00 0.00 0.00 89 1016.4
20260508043943 35 27 1.7 3.5 0.00 0.00 0.00 88 1016.6
20260508043441 35 9 1.7 2.6 0.00 0.00 0.00 89 1016.5
20260508042937 34 352 0.9 3.5 0.00 0.00 0.00 90 1016.5
20260508042436 35 18 2.6 3.5 0.00 0.00 0.00 89 1016.4
20260508041932 35 40 2.6 2.6 0.00 0.00 0.00 89 1016.3
20260508041428 35 39 3.5 4.3 0.00 0.00 0.00 88 1016.3
20260508040925 35 76 0.0 2.6 0.00 0.00 0.00 88 1016.5
20260508040423 35 89 0.0 3.5 0.00 0.00 0.00 87 1016.5
20260508035920 35 55 1.7 2.6 0.00 0.00 0.00 88 1016.3
20260508035417 36 339 0.0 2.6 0.00 0.00 0.00 88 1016.1
20260508034914 36 63 1.7 3.5 0.00 0.00 0.00 88 1016.3
20260508034411 37 83 2.6 3.5 0.00 0.00 0.00 86 1015.9
20260508033907 36 38 1.7 4.3 0.00 0.00 0.00 89 1016.0
20260508033406 36 358 1.7 2.6 0.00 0.00 0.00 89 1016.0
20260508032903 36 98 1.7 2.6 0.00 0.00 0.00 87 1016.0
20260508032400 36 332 1.7 3.5 0.00 0.00 0.00 88 1015.9
20260508031857 36 89 0.0 2.6 0.00 0.00 0.00 88 1015.8
20260508031354 37 331 2.6 3.5 0.00 0.00 0.00 87 1016.0
20260508030850 36 45 0.0 4.3 0.00 0.00 0.00 89 1015.8
20260508030347 37 68 1.7 3.5 0.00 0.00 0.00 87 1015.6
20260508025844 37 95 1.7 3.5 0.00 0.00 0.00 89 1015.7
20260508025341 36 355 1.7 2.6 0.00 0.00 0.00 89 1015.7
20260508024838 37 14 0.9 2.6 0.00 0.00 0.00 87 1015.5
20260508024334 37 82 0.9 3.5 0.00 0.00 0.00 87 1015.6
20260508023831 37 323 1.7 2.6 0.00 0.00 0.00 88 1015.4
20260508023328 37 28 2.6 4.3 0.00 0.00 0.00 87 1015.3
20260508022825 38 110 2.6 4.3 0.00 0.00 0.00 88 1015.3
20260508022321 38 116 1.7 3.5 0.00 0.00 0.00 87 1015.3
20260508021818 38 336 1.7 2.6 0.00 0.00 0.00 86 1015.3
20260508021313 38 49 0.9 1.7 0.00 0.00 0.00 87 1015.3
20260508020810 38 84 2.6 3.5 0.00 0.00 0.00 85 1015.3
20260508020308 39 54 0.0 4.3 0.00 0.00 0.00 86 1015.0
20260508015804 38 19 0.0 1.7 0.00 0.00 0.00 86 1015.0
20260508015305 38 3 0.9 2.6 0.00 0.00 0.00 87 1015.0
20260508014759 39 14 1.7 2.6 0.00 0.00 0.00 84 1014.9
20260508014256 40 56 1.7 2.6 0.00 0.00 0.00 83 1015.2
20260508013751 40 343 1.7 2.6 0.00 0.00 0.00 83 1015.0
20260508013248 41 76 0.9 2.6 0.00 0.00 0.00 81 1014.9
20260508012745 40 94 3.5 4.3 0.00 0.00 0.00 84 1015.0
20260508012242 40 3 2.6 2.6 0.00 0.00 0.00 85 1015.0
20260508011740 40 10 1.7 3.5 0.00 0.00 0.00 86 1014.9
20260508011237 40 109 0.0 3.5 0.00 0.00 0.00 84 1014.7
20260508010734 40 96 1.7 3.5 0.00 0.00 0.00 86 1014.5
20260508010233 40 74 0.9 2.6 0.00 0.00 0.00 83 1014.5
20260508005729 40 93 1.7 1.7 0.00 0.00 0.00 82 1014.4
20260508005226 41 98 1.7 2.6 0.00 0.00 0.00 81 1014.4
20260508004721 41 346 1.7 2.6 0.00 0.00 0.00 81 1014.5
20260508004218 42 23 0.9 4.3 0.00 0.00 0.00 80 1014.4
20260508003715 43 109 0.9 1.7 0.00 0.00 0.00 77 1014.3
20260508003212 43 113 0.9 3.5 0.00 0.00 0.00 76 1014.3
20260508002708 44 98 0.9 1.7 0.00 0.00 0.00 74 1014.4
20260508002206 44 126 0.9 2.6 0.00 0.00 0.00 75 1014.0
20260508001701 45 56 0.9 1.7 0.00 0.00 0.00 71 1014.3
20260508001157 47 75 0.9 4.3 0.00 0.00 0.00 65 1014.1
20260508000654 46 136 2.6 5.2 0.00 0.00 0.00 63 1014.1
20260508000151 47 137 1.7 4.3 0.00 0.00 0.00 62 1014.3
20260507235647 47 158 3.5 6.1 0.00 0.00 0.00 57 1014.1
20260507235145 48 150 0.9 7.0 0.00 0.00 0.00 59 1013.8
20260507234642 49 126 6.1 6.1 0.00 0.00 0.00 58 1014.0
20260507234138 49 196 4.3 6.1 0.00 0.00 0.00 54 1013.7
20260507233635 48 141 5.2 5.2 0.00 0.00 0.00 63 1013.7
20260507233134 49 86 4.3 7.8 0.00 0.00 0.00 57 1013.5
20260507232629 49 118 0.0 4.3 0.00 0.00 0.00 59 1013.6
20260507232127 50 122 6.1 7.8 0.00 0.00 0.00 55 1013.3
20260507231623 50 144 4.3 5.2 0.00 0.00 0.00 55 1013.4
20260507231121 50 105 4.3 7.0 0.00 0.00 0.00 54 1013.3
20260507230616 50 182 1.7 5.2 0.00 0.00 0.00 55 1013.4
20260507230114 51 148 3.5 7.8 0.00 0.00 0.00 53 1013.4
20260507225608 51 153 4.3 6.1 0.00 0.00 0.00 53 1013.4
20260507225105 52 78 4.3 12.2 0.00 0.00 0.00 50 1013.3
20260507224601 52 87 3.5 11.3 0.00 0.00 0.00 51 1013.3
20260507224058 52 193 3.5 7.8 0.00 0.00 0.00 52 1013.0
20260507223554 53 119 2.6 15.6 0.00 0.00 0.00 50 1013.2
20260507223051 53 18 5.2 9.6 0.00 0.00 0.00 51 1012.9
20260507222548 54 161 0.9 10.4 0.00 0.00 0.00 52 1013.0
20260507222044 53 197 5.2 13.0 0.00 0.00 0.00 50 1012.9
20260507221540 54 84 3.5 10.4 0.00 0.00 0.00 50 1013.0
20260507221038 53 355 9.6 18.2 0.00 0.00 0.00 52 1013.1
20260507220535 53 97 6.1 9.6 0.00 0.00 0.00 51 1012.6
20260507220032 54 0 6.1 11.3 0.00 0.00 0.00 50 1012.5
20260507215528 54 184 0.9 6.1 0.00 0.00 0.00 52 1012.5
20260507215027 52 83 7.0 12.2 0.00 0.00 0.00 53 1012.9
20260507214523 52 122 4.3 14.8 0.00 0.00 0.00 55 1012.6
20260507214019 53 226 2.6 11.3 0.00 0.00 0.00 54 1012.4
20260507213516 52 86 5.2 10.4 0.00 0.00 0.00 55 1012.5
20260507213013 54 83 7.0 17.4 0.00 0.00 0.00 52 1012.5
20260507212508 57 335 5.2 7.8 0.00 0.00 0.00 47 1012.2
20260507212005 56 182 2.6 7.8 0.00 0.00 0.00 51 1012.4
20260507211502 57 191 4.3 8.7 0.00 0.00 0.00 48 1012.3
20260507210958 57 76 0.0 5.2 0.00 0.00 0.00 53 1012.3
20260507210455 54 350 2.6 13.0 0.00 0.00 0.00 52 1012.2
20260507205952 54 47 2.6 11.3 0.00 0.00 0.00 52 1012.3
20260507205449 54 158 3.5 15.6 0.00 0.00 0.00 52 1012.4
20260507204945 54 15 3.5 13.9 0.00 0.00 0.00 55 1012.3
20260507204442 54 219 4.3 10.4 0.00 0.00 0.00 56 1012.2
20260507203940 54 154 2.6 7.0 0.00 0.00 0.00 53 1012.1
20260507203437 54 348 5.2 11.3 0.00 0.00 0.00 55 1012.4
20260507202934 56 57 6.1 8.7 0.00 0.00 0.00 51 1012.3
20260507202430 56 223 1.7 7.0 0.00 0.00 0.00 52 1012.3
20260507201926 53 29 7.8 13.9 0.00 0.00 0.00 54 1012.4
20260507201421 52 312 3.5 11.3 0.00 0.00 0.00 55 1012.4
20260507200919 54 355 10.4 13.9 0.00 0.00 0.00 54 1012.4
20260507200414 54 29 5.2 20.9 0.00 0.00 0.00 54 1012.4
20260507195910 53 92 8.7 17.4 0.00 0.00 0.00 56 1012.3
20260507195408 55 59 3.5 12.2 0.00 0.00 0.00 55 1012.2
20260507194905 56 113 6.1 13.0 0.00 0.00 0.00 51 1012.1
20260507194401 55 28 5.2 14.8 0.00 0.00 0.00 53 1012.2
20260507193857 57 142 24.3 24.3 0.00 0.00 0.00 50 1012.3
20260507193355 59 171 4.3 7.8 0.00 0.00 0.00 47 1012.4
20260507192851 54 350 2.6 17.4 0.00 0.00 0.00 52 1012.4
20260507192347 55 84 8.7 20.9 0.00 0.00 0.00 55 1012.7
20260507191844 54 64 7.0 10.4 0.00 0.00 0.00 54 1012.5
20260507191340 57 41 4.3 7.8 0.00 0.00 0.00 54 1012.5
20260507190837 57 50 7.8 9.6 0.00 0.00 0.00 52 1012.6
20260507190335 57 192 9.6 20.9 0.00 0.00 0.00 54 1012.3
20260507185834 57 189 6.1 11.3 0.00 0.00 0.00 50 1012.3
20260507185330 54 83 8.7 10.4 0.00 0.00 0.00 55 1012.7
20260507184828 53 187 1.7 13.9 0.00 0.00 0.00 59 1012.6
20260507184326 57 310 3.5 5.2 0.00 0.00 0.00 59 1012.4
20260507183822 59 205 6.1 7.0 0.00 0.00 0.00 50 1012.5
20260507183319 59 215 4.3 7.8 0.00 0.00 0.00 51 1012.7
20260507182817 54 94 3.5 6.1 0.00 0.00 0.00 59 1012.7
20260507182312 58 318 3.5 6.1 0.00 0.00 0.00 56 1012.7
20260507181809 56 321 7.8 14.8 0.00 0.00 0.00 55 1012.5
20260507181305 59 199 4.3 8.7 0.00 0.00 0.00 57 1012.7
20260507180801 58 201 2.6 12.2 0.00 0.00 0.00 55 1012.7
20260507180259 57 166 3.5 14.8 0.00 0.00 0.00 58 1012.4
20260507175754 57 155 3.5 12.2 0.00 0.00 0.00 59 1012.7
20260507175251 56 246 6.1 12.2 0.00 0.00 0.00 57 1012.9
20260507174748 54 88 1.7 4.3 0.00 0.00 0.00 61 1012.9
20260507174246 52 28 1.7 13.0 0.00 0.00 0.00 63 1013.1
20260507173744 51 94 4.3 13.9 0.00 0.00 0.00 65 1013.0
20260507173241 58 71 13.0 13.0 0.00 0.00 0.00 60 1013.1
20260507172737 53 119 7.0 16.5 0.00 0.00 0.00 63 1013.2
20260507172234 53 333 1.7 9.6 0.00 0.00 0.00 68 1013.2
20260507171734 53 180 10.4 10.4 0.00 0.00 0.00 64 1013.2
20260507171232 51 17 6.1 11.3 0.00 0.00 0.00 67 1013.3
20260507170729 52 347 4.3 12.2 0.00 0.00 0.00 68 1013.4
20260507170225 51 328 2.6 7.8 0.00 0.00 0.00 68 1013.2
20260507165721 51 332 2.6 12.2 0.00 0.00 0.00 71 1013.4
20260507165217 52 347 4.3 9.6 0.00 0.00 0.00 65 1013.3
20260507164713 52 142 0.9 5.2 0.00 0.00 0.00 66 1013.7
20260507164211 57 55 3.5 9.6 0.00 0.00 0.00 61 1013.5
20260507163708 51 329 3.5 15.6 0.00 0.00 0.00 69 1013.7
20260507163206 51 6 6.1 16.5 0.00 0.00 0.00 68 1013.8
20260507162702 54 181 2.6 9.6 0.00 0.00 0.00 63 1013.5
20260507162158 50 159 2.6 15.6 0.00 0.00 0.00 75 1014.1
20260507161654 51 132 4.3 8.7 0.00 0.00 0.00 69 1014.1
20260507161150 52 154 1.7 13.0 0.00 0.00 0.00 70 1014.1
20260507160647 53 100 2.6 9.6 0.00 0.00 0.00 70 1014.0
20260507160144 53 44 1.7 5.2 0.00 0.00 0.00 73 1014.1
20260507155639 51 132 2.6 9.6 0.00 0.00 0.00 69 1014.3
20260507155136 51 346 10.4 13.9 0.00 0.00 0.00 71 1014.5
20260507154633 52 105 3.5 7.8 0.00 0.00 0.00 69 1014.2
20260507154130 53 176 0.9 6.1 0.00 0.00 0.00 68 1014.2
20260507153621 50 156 5.2 6.1 0.00 0.00 0.00 73 1014.3
20260507153117 47 45 2.6 12.2 0.00 0.00 0.00 79 1014.0
20260507152613 47 36 4.3 13.0 0.00 0.00 0.00 79 1014.4
20260507152109 47 86 5.2 7.8 0.00 0.00 0.00 78 1014.2
20260507151605 47 78 5.2 7.8 0.00 0.00 0.00 78 1014.1
20260507151103 48 107 13.0 13.0 0.00 0.00 0.00 76 1014.3
20260507150600 47 65 2.6 7.0 0.00 0.00 0.00 76 1014.5
20260507150057 48 79 3.5 6.1 0.00 0.00 0.00 76 1014.5
20260507145552 48 150 3.5 6.1 0.00 0.00 0.00 75 1014.3
20260507145050 49 3 2.6 4.3 0.00 0.00 0.00 73 1014.6
20260507144546 48 161 3.5 5.2 0.00 0.00 0.00 73 1014.5
20260507144044 48 153 8.7 8.7 0.00 0.00 0.00 73 1014.5
20260507143540 47 42 2.6 4.3 0.00 0.00 0.00 75 1014.3
20260507143038 46 58 1.7 4.3 0.00 0.00 0.00 76 1014.4
20260507142533 46 298 0.9 2.6 0.00 0.00 0.00 75 1014.7
20260507142031 46 140 1.7 3.5 0.00 0.00 0.00 74 1014.7
20260507141527 45 323 2.6 3.5 0.00 0.00 0.00 77 1014.9
20260507141024 45 55 2.6 6.1 0.00 0.00 0.00 77 1014.9
20260507140521 48 308 0.0 3.5 0.00 0.00 0.00 77 1014.9
20260507140018 46 330 1.7 2.6 0.00 0.00 0.00 77 1015.0
20260507135515 45 86 0.0 6.1 0.00 0.00 0.00 78 1015.3
20260507135012 46 151 2.6 4.3 0.00 0.00 0.00 78 1015.3
20260507134508 45 122 4.3 7.0 0.00 0.00 0.00 78 1015.0
20260507134004 44 94 3.5 7.0 0.00 0.00 0.00 77 1014.9
20260507133500 44 36 7.0 9.6 0.00 0.00 0.00 77 1014.8
20260507132959 44 141 6.1 7.0 0.00 0.00 0.00 78 1015.2
20260507132455 44 122 5.2 7.8 0.00 0.00 0.00 79 1015.0
20260507131951 44 76 2.6 8.7 0.00 0.00 0.00 80 1015.0
20260507131448 44 171 3.5 4.3 0.00 0.00 0.00 80 1015.2
20260507130945 44 68 4.3 4.3 0.00 0.00 0.00 80 1015.3
20260507130442 44 127 0.9 5.2 0.00 0.00 0.00 80 1015.2
20260507125941 43 171 2.6 6.1 0.00 0.00 0.00 77 1015.3
20260507125439 43 80 3.5 7.8 0.00 0.00 0.00 77 1015.2
20260507124936 44 199 0.0 4.3 0.00 0.00 0.00 80 1015.4
20260507124432 44 48 1.7 3.5 0.00 0.00 0.00 85 1015.4
20260507123930 43 170 1.7 6.1 0.00 0.00 0.00 83 1015.3
20260507123427 43 47 0.9 5.2 0.00 0.00 0.00 86 1015.3
20260507122923 43 2 0.9 4.3 0.00 0.00 0.00 91 1015.2
20260507122419 43 86 3.5 10.4 0.00 0.00 0.00 91 1014.9
20260507121915 43 76 7.8 9.6 0.00 0.00 0.00 91 1015.2
20260507121410 43 93 4.3 7.0 0.00 0.00 0.00 92 1015.2
20260507120908 43 350 6.1 7.8 0.00 0.00 0.00 92 1014.9
20260507120404 43 74 4.3 7.8 0.00 0.00 0.00 92 1014.9
20260507115900 44 78 7.8 7.8 0.00 0.00 0.00 93 1014.9
20260507115356 44 116 0.0 4.3 0.00 0.00 0.00 94 1015.2
20260507114852 44 67 3.5 5.2 0.00 0.00 0.00 94 1014.6
20260507114349 44 5 2.6 4.3 0.00 0.00 0.00 93 1015.0
20260507113846 44 3 1.7 2.6 0.00 0.00 0.00 94 1015.0
20260507113343 44 105 0.0 2.6 0.00 0.00 0.00 94 1014.9
20260507112841 44 41 1.7 5.2 0.00 0.00 0.00 93 1014.7
20260507112338 44 83 3.5 4.3 0.00 0.00 0.00 94 1015.0
20260507111836 44 131 0.9 2.6 0.00 0.00 0.00 95 1014.8
20260507111332 44 305 2.6 4.3 0.00 0.00 0.00 95 1014.6
20260507110828 44 347 2.6 3.5 0.00 0.00 0.00 96 1014.5
20260507110324 44 60 0.0 4.3 0.00 0.00 0.00 97 1014.7
20260507105821 45 89 0.0 1.7 0.00 0.00 0.00 96 1014.5
20260507105318 45 9 0.9 4.3 0.00 0.00 0.00 94 1014.4
20260507104815 45 81 1.7 5.2 0.00 0.00 0.00 94 1014.2
20260507104311 45 46 1.7 4.3 0.00 0.00 0.00 95 1014.2
20260507103807 45 58 3.5 7.0 0.00 0.00 0.00 93 1014.5
20260507103304 45 19 2.6 3.5 0.00 0.00 0.00 93 1014.1
20260507102801 46 117 1.7 3.5 0.00 0.00 0.00 92 1014.1
20260507102257 46 77 2.6 3.5 0.00 0.00 0.00 92 1014.2
20260507101754 46 104 0.9 2.6 0.00 0.00 0.00 93 1014.4
20260507101253 46 269 0.0 2.6 0.00 0.00 0.00 94 1014.2
20260507100751 45 38 0.0 2.6 0.00 0.00 0.00 95 1014.1
20260507100249 46 26 2.6 3.5 0.00 0.00 0.00 95 1014.1
20260507095747 46 355 1.7 2.6 0.00 0.00 0.00 94 1014.1
20260507095243 46 147 0.9 2.6 0.00 0.00 0.00 94 1014.1
20260507094740 46 113 2.6 2.6 0.00 0.00 0.00 93 1014.2
20260507094237 46 125 0.0 2.6 0.00 0.00 0.00 93 1014.2
20260507093734 46 174 1.7 2.6 0.00 0.00 0.00 93 1014.1
20260507093232 46 184 0.0 3.5 0.00 0.00 0.00 93 1014.1
20260507092730 46 135 0.0 2.6 0.00 0.00 0.00 94 1014.0
20260507092225 46 44 0.0 3.5 0.00 0.00 0.00 95 1014.1
20260507091722 46 320 2.6 2.6 0.00 0.00 0.00 94 1013.8
20260507091219 46 12 2.6 7.0 0.00 0.00 0.00 93 1013.8
20260507090714 46 344 3.5 6.1 0.00 0.00 0.00 93 1013.5
20260507090211 46 342 1.7 3.5 0.00 0.00 0.00 94 1013.6
20260507085708 46 93 0.0 3.5 0.00 0.00 0.00 95 1013.5
20260507085205 46 87 2.6 3.5 0.00 0.00 0.00 97 1013.7
20260507084702 46 89 1.7 2.6 0.00 0.00 0.00 97 1013.7
20260507084158 46 335 2.6 3.5 0.00 0.00 0.00 97 1013.7
20260507083655 46 94 0.0 2.6 0.00 0.00 0.00 98 1014.1
20260507083152 46 339 1.7 3.5 0.00 0.00 0.00 98 1014.1
20260507082648 46 80 0.9 3.5 0.00 0.00 0.00 97 1014.2
20260507082144 46 38 2.6 3.5 0.00 0.00 0.00 98 1014.0
20260507081641 46 328 0.0 4.3 0.00 0.00 0.00 98 1013.8
20260507081137 46 110 3.5 6.1 0.00 0.00 0.00 98 1013.8
20260507080634 46 0 3.5 4.3 0.00 0.00 0.00 98 1014.1
20260507080131 46 72 1.7 4.3 0.00 0.00 0.00 98 1013.8
20260507075631 46 25 2.6 3.5 0.00 0.00 0.00 98 1014.4
20260507075127 46 348 2.6 3.5 0.00 0.00 0.00 97 1014.1
20260507074624 46 347 2.6 4.3 0.00 0.00 0.00 97 1014.1
20260507074122 47 92 2.6 3.5 0.00 0.00 0.00 97 1014.2
20260507073618 47 33 2.6 4.3 0.00 0.00 0.00 97 1014.2
20260507073114 47 5 2.6 3.5 0.00 0.00 0.00 97 1014.3
20260507072613 47 358 2.6 3.5 0.00 0.00 0.00 97 1014.4
20260507072109 47 89 0.0 2.6 0.00 0.00 0.00 97 1014.3
20260507071607 47 138 0.0 4.3 0.00 0.00 0.00 96 1014.3
20260507071103 47 333 2.6 2.6 0.00 0.00 0.00 96 1014.2
20260507070600 48 73 2.6 2.6 0.00 0.00 0.00 96 1014.0
20260507070057 48 29 0.0 1.7 0.00 0.00 0.00 95 1014.1
20260507065553 48 343 0.9 2.6 0.00 0.00 0.00 95 1014.1
20260507065051 48 3 2.6 2.6 0.00 0.00 0.00 94 1014.0
20260507064549 48 64 2.6 6.1 0.00 0.00 0.00 94 1013.7
20260507064047 48 58 3.5 5.2 0.00 0.00 0.00 93 1014.3
20260507063544 48 95 0.0 1.7 0.00 0.00 0.00 93 1014.3